Zurück zum Katalog

YZ-1 R/B

AktivMEO
NORAD 44866·ROCKET BODY·🇨🇳 China

Gestartet Dec 16, 2019 von Xichang Satellite Launch Center

Loading…

Nächste Überflüge (nächste 24 Stunden)

TLE

AktuellSource: Space-Track

Epoche: Sep 12, 2026, 18:33 UTC

1 44866U 19090C   26255.77344428 -.00000023  00000-0  00000-0 0  9992
2 44866  56.4653  66.8883 0071363  42.7055 317.8726  1.78364354 43935

Verfolge YZ-1 R/B in Echtzeit mit AllMySat

Download on the App Store